Content
SEND FEEDBACK

Daily
Averages
Monthly
Summary
Czech Republic

CESKE BUDEJOVICE, CZECH REPUBLIC


Home > Europe > Czech Republic
Elevation: 1391 feet     Latitude: 48 56N     Longitude: 014 27E

WEATHER
 
SELECT A DAY
Number of Records: 289,386;   Date Range: 7/1/96 - 4/21/13
 
SHARE

PRINT THIS DATA

[ ← Previous Day ]
WEATHER ALMANAC - JANUARY 19, 2013
[ Next Day → ]
[ °C ]   °F
Weather ElementAverageHighLow
Temperature21.1 °F25 °F (1:00 pm)11 °F (7:00 am)
Dewpoint17.7 °F19.4 °F (12:50 am)10 °F (7:00 am)
Humidity86 %100 % (3:20 am)69 % (1:00 pm)
Barometer29.51 in29.67 in (1:00 am)29.44 in (3:50 pm)
Wind Speed8 mph13.4 mph (7:00 pm)
Weather ElementAverage
Visibility5.6 mi
Wind DirectionE (93.7 °)

Weather ElementTotal
Precipitation---
Heating Degree Days47 (Base 65)
Averaged from 54 records on January 19, 2013
WEATHER CONDITIONS BREAKOUT
WIND DIRECTION BREAKOUT
WEATHER BY HOUR - JANUARY 19, 2013
[ °C ]   °F
Local TimeTemperatureDewpointHumidityBarometerVisibilityWind DirectionWind SpeedGust SpeedPrecipitationEventsConditions
12:50 AM23.0 °F19.4 °F86 %29.59 in6.2 miEast (100°)4.6 mphMostly Cloudy
1:00 AM23.0 °F19.0 °F77 %29.67 in7.0 miEast (100°)4.5 mph
1:20 AM21.2 °F17.6 °F86 %29.59 in6.2 miEast (100°)5.8 mphPartly Cloudy
1:50 AM21.2 °F17.6 °F86 %29.59 in6.2 miEast (100°)4.6 mphPartly Cloudy
2:20 AM19.4 °F17.6 °F93 %29.59 in5.0 miESE (120°)3.5 mphPartly Cloudy
2:50 AM19.4 °F17.6 °F93 %29.59 in3.1 miESE (110°)3.5 mphMostly Cloudy
3:20 AM17.6 °F17.6 °F100 %29.56 in3.7 miESE (120°)3.5 mphMostly Cloudy
3:50 AM17.6 °F17.6 °F100 %29.56 in4.3 miENE (70°)4.6 mphMostly Cloudy
4:00 AM18.0 °F17.0 °F92 %29.66 in4.0 miENE (70°)4.5 mphOvercast
4:20 AM19.4 °F17.6 °F93 %29.53 in4.3 miEast (80°)5.8 mphMostly Cloudy
4:50 AM21.2 °F17.6 °F86 %29.53 in6.2 miEast (80°)6.9 mphMostly Cloudy
5:20 AM19.4 °F17.6 °F93 %29.53 in5.6 miESE (110°)3.5 mphMostly Cloudy
5:50 AM17.6 °F15.8 °F93 %29.53 in3.7 miVariable1.2 mphScattered Clouds
6:20 AM14.0 °F12.2 °F93 %29.53 in3.7 miNE (40°)2.3 mphScattered Clouds
6:50 AM12.2 °F10.4 °F92 %29.50 in0.7 miNE (50°)5.8 mphScattered Clouds
7:00 AM11.0 °F10.0 °F95 %29.62 in1.0 miNE (50°)6.7 mphMist
7:20 AM14.0 °F12.2 °F93 %29.50 in4.3 miEast (80°)3.5 mphPartly Cloudy
7:50 AM14.0 °F12.2 °F93 %29.50 in0.9 miEast (100°)4.6 mphPartly Cloudy
8:20 AM15.8 °F14.0 °F93 %29.50 in6.2 miEast (80°)4.6 mphScattered Clouds
8:50 AM15.8 °F14.0 °F93 %29.50 in6.2 miVariable2.3 mphMostly Cloudy
9:20 AM19.4 °F17.6 °F93 %29.50 in6.2 miEast (80°)6.9 mphMostly Cloudy
9:50 AM21.2 °F17.6 °F86 %29.50 in6.2 miEast (100°)10.4 mphMostly Cloudy
10:20 AM23.0 °F17.6 °F80 %29.47 in6.2 miEast (90°)11.5 mphMostly Cloudy
10:50 AM23.0 °F19.4 °F86 %29.50 in6.2 miEast (90°)10.4 mphMostly Cloudy
11:20 AM23.0 °F19.4 °F86 %29.47 in6.2 miEast (90°)10.4 mphMostly Cloudy
11:50 AM23.0 °F19.4 °F86 %29.47 in6.2 miEast (90°)9.2 mphMostly Cloudy
12:20 PM24.8 °F19.4 °F80 %29.47 in6.2 miESE (110°)9.2 mphMostly Cloudy
12:50 PM24.8 °F19.4 °F80 %29.47 in6.2 miESE (110°)9.2 mphMostly Cloudy
1:00 PM25.0 °F19.0 °F69 %29.55 in9.0 miESE (110°)8.9 mphPartly Cloudy
1:20 PM24.8 °F19.4 °F80 %29.47 in6.2 miESE (120°)10.4 mphMostly Cloudy
1:50 PM24.8 °F19.4 °F80 %29.47 in6.2 miEast (100°)9.2 mphMostly Cloudy
2:20 PM24.8 °F19.4 °F80 %29.47 in6.2 miESE (110°)10.4 mphMostly Cloudy
2:50 PM24.8 °F19.4 °F80 %29.47 in6.2 miESE (110°)10.4 mphMostly Cloudy
3:20 PM24.8 °F19.4 °F80 %29.47 in6.2 miESE (110°)9.2 mphMostly Cloudy
3:50 PM24.8 °F19.4 °F80 %29.44 in6.2 miESE (110°)9.2 mphMostly Cloudy
4:00 PM24.0 °F19.0 °F74 %29.53 in9.0 miESE (110°)8.9 mphScattered Clouds
4:20 PM23.0 °F19.4 °F86 %29.47 in6.2 miESE (110°)11.5 mphMostly Cloudy
4:50 PM23.0 °F19.4 °F86 %29.47 in6.2 miEast (100°)10.4 mphMostly Cloudy
5:20 PM23.0 °F19.4 °F86 %29.47 in6.2 miEast (100°)9.2 mphMostly Cloudy
5:50 PM23.0 °F19.4 °F86 %29.47 in6.2 miESE (110°)9.2 mphMostly Cloudy
6:20 PM23.0 °F19.4 °F86 %29.47 in6.2 miEast (100°)9.2 mphOvercast
6:50 PM23.0 °F19.4 °F86 %29.47 in6.2 miESE (110°)12.7 mphOvercast
7:00 PM23.0 °F19.0 °F77 %29.55 in6.0 miESE (110°)13.4 mphOvercast
7:20 PM23.0 °F19.4 °F86 %29.47 in6.2 miEast (100°)10.4 mphMostly Cloudy
7:50 PM23.0 °F19.4 °F86 %29.47 in5.6 miEast (100°)11.5 mphMostly Cloudy
8:20 PM23.0 °F17.6 °F80 %29.47 in6.2 miEast (100°)11.5 mphMostly Cloudy
8:50 PM23.0 °F17.6 °F80 %29.47 in6.2 miESE (110°)11.5 mphMostly Cloudy
9:20 PM23.0 °F17.6 °F80 %29.47 in6.2 miESE (110°)11.5 mphMostly Cloudy
9:50 PM23.0 °F19.4 °F86 %29.47 in5.6 miEast (100°)9.2 mphMostly Cloudy
10:00 PM22.0 °F18.0 °F80 %29.56 in6.0 miEast (100°)8.9 mphMostly Cloudy
10:20 PM21.2 °F17.6 °F86 %29.47 in6.2 miEast (100°)10.4 mphMostly Cloudy
10:50 PM21.2 °F17.6 °F86 %29.47 in6.2 miEast (100°)9.2 mphMostly Cloudy
11:20 PM21.2 °F17.6 °F86 %29.47 in6.2 miEast (100°)11.5 mphPartly Cloudy
11:50 PM21.2 °F17.6 °F86 %29.47 in6.2 miEast (100°)9.2 mphMostly Cloudy
Hourly data recorded from LOLF, located miles away from Ceske Budejovice, Czech Republic







STORIES FROM OUR PARTNERS